This demonstration page uses our WeatherBlox Daily Observations layout. Learn more.

Left ArrowRight Arrow

39.01783, -85.05884

Hourly Observations for February 9, 2017

Temp ( °F °C ) Dew Point ( °F °C ) Humidity (%) Winds ( mph kmh ) Pressure ( in mb ) Visibility ( mi km ) Precip ( " mm )
12:52 am 00:52 Cloudy 28 -2.2 24 -4.4 85 85 NNW 21 33 29.96 1015 10 16 0.00 0.00
1:07 am 01:07 Cloudy 28 -2.2 24 -4.4 85 85 NNW 21 33 30.03 1017 10 16 0.00 0.00
1:52 am 01:52 Cloudy 28 -2.2 24 -4.4 85 85 NW 17 28 30.00 1016 10 16 0.00 0.00
2:52 am 02:52 Cloudy 28 -2.2 23 -5 81 81 NW 16 26 30.04 1017 10 16 0.00 0.00
3:52 am 03:52 Cloudy 28 -2.2 21 -6.1 75 75 NNW 15 24 30.05 1018 10 16 0.00 0.00
4:52 am 04:52 Cloudy 27 -2.8 21 -6.1 78 78 WNW 13 20 30.07 1018 10 16 0.00 0.00
5:52 am 05:52 Cloudy with Light Snow 26 -3.3 19 -7.2 75 75 WNW 12 19 30.12 1020 8 13 0.00 0.03
6:52 am 06:52 Cloudy with Light Snow 26 -3.3 19 -7.2 75 75 W 12 19 30.13 1020 9 14 0.00 0.03
7:52 am 07:52 Cloudy 24 -4.4 17 -8.3 75 75 WNW 15 24 30.14 1021 9 14 0.00 0.03
8:15 am 08:15 Cloudy 23 -5 15 -9.4 72 72 WNW 20 31 30.18 1022 10 16 0.00 0.00
8:52 am 08:52 Cloudy 23 -5 16 -8.9 74 74 WNW 15 24 30.17 1022 10 16 0.00 0.00
9:28 am 09:28 Mostly Cloudy 23 -5 12 -11 63 63 NW 23 37 30.21 1023 10 16 0.00 0.00
9:52 am 09:52 Mostly Cloudy 23 -5 14 -10 68 68 NW 20 31 30.20 1023 9 14 0.00 0.00
10:12 am 10:12 Cloudy with Light Snow 23 -5 15 -9.4 72 72 WNW 16 26 30.24 1024 2 3 0.00 0.03
10:48 am 10:48 Mostly Cloudy with Light Snow 21 -6 16 -9 80 80 WNW 24 39 30.30 1026 5 8 0.00 0.00
10:52 am 10:52 Mostly Cloudy with Haze 22 -5.6 15 -9.4 75 75 WNW 18 30 30.24 1024 5 8 0.00 0.03
11:11 am 11:11 Cloudy 22 -5.6 15 -9.4 75 75 WNW 15 24 30.33 1027 9 14 0.00 0.03
11:52 am 11:52 Cloudy 21 -6.1 13 -10.6 71 71 WNW 16 26 30.28 1025 10 16 0.00 0.03
12:52 pm 12:52 Mostly Cloudy 23 -5 13 -10.6 65 65 WNW 18 30 30.29 1026 10 16 0.00 0.00
1:18 pm 13:18 Mostly Cloudy 23 -5 13 -10.6 65 65 NW 16 26 30.36 1028 10 16 0.00 0.00
1:52 pm 13:52 Partly Cloudy 24 -4.4 13 -10.6 62 62 W 17 28 30.29 1026 10 16 0.00 0.00
2:52 pm 14:52 Mostly Sunny 24 -4.4 12 -11.1 60 60 WNW 16 26 30.31 1026 10 16 0.00 0.00
3:52 pm 15:52 Mostly Sunny 24 -4.4 9 -12.8 52 52 NW 16 26 30.33 1027 10 16 0.00 0.00
4:52 pm 16:52 Sunny 24 -4.4 9 -12.8 52 52 WNW 12 19 30.34 1028 10 16 0.00 0.00
5:52 pm 17:52 Sunny 22 -5.6 8 -13.3 55 55 WNW 15 24 30.36 1028 10 16 0.00 0.00
6:52 pm 18:52 Clear 20 -6.7 7 -13.9 57 57 W 10 17 30.37 1029 10 16 0.00 0.00
7:52 pm 19:52 Clear 19 -7.2 6 -14.4 57 57 WNW 7 11 30.39 1029 10 16 0.00 0.00
8:52 pm 20:52 Clear 18 -7.8 6 -14.4 59 59 Calm 30.40 1029 10 16 0.00 0.00
9:52 pm 21:52 Clear 15 -9.4 7 -13.9 70 70 Calm 30.40 1030 10 16 0.00 0.00
10:52 pm 22:52 Partly Cloudy 14 -10 8 -13.3 77 77 S 5 7 30.40 1029 10 16 0.00 0.00
11:52 pm 23:52 Mostly Cloudy 17 -8.3 7 -13.9 64 64 SW 5 7 30.41 1030 10 16 0.00 0.00

Powered by AerisWeather